Leeuwarden, Netherlands

9:09 AM CET on February 20, 2018 (GMT +0100)
Leeuwarden Air Base

Weather History for EHLW - February, 2013

Change the Weather History Date:

Tuesday, February 26, 2013

  Actual Average Record
Temperature  
Mean Temperature 36 °F -  
Max Temperature 39 °F 45 °F 51 °F (2002)
Min Temperature 33 °F 35 °F 24 °F (2003)
Degree Days  
Heating Degree Days 29    
Moisture  
Dew Point 33 °F    
Average Humidity 91    
Maximum Humidity 93    
Minimum Humidity 81    
Precipitation  
Precipitation 0.00 in - - ()
Sea Level Pressure  
Sea Level Pressure 30.49 in    
Wind  
Wind Speed 12 mph ()    
Max Wind Speed 18 mph    
Max Gust Speed -    
Visibility 3.2 miles    
Events Rain    
Averages and records for this station are not official NWS values.
T = Trace of Precipitation, MM = Missing Value Source: Averaged Metar Reports

Daily Weather History Graph

Daily Weather History Graph

Search for Another Location

Airport or City:

Trip Planner

Search our weather history database for the weather conditions in past years. The results will help you decide how hot, cold, wet, or windy it might be!

Date:

Astronomy

Feb. 26, 2013 Rise Set
Actual Time 7:31 AM CET 6:09 PM CET
Civil Twilight 6:56 AM CET 6:44 PM CET
Nautical Twilight 6:15 AM CET 7:24 PM CET
Astronomical Twilight 5:35 AM CET 8:05 PM CET
Moon 7:25 PM CET (2/26) 7:13 AM CET (2/26)
Length of Visible Light 11h 48m
Length of Day
10h 38m
Full, 100% of the Moon is Illuminated
Feb 26
Full
Mar 4
Last Quarter
Mar 11
New
Mar 19
First Quarter
Mar 27
Full

Hourly Weather History & Observations

Time (CET) Temp. Windchill Dew Point Humidity Pressure Visibility Wind Dir Wind Speed Gust Speed Precip Events Conditions
12:14 AM 35.6 °F 25.9 °F 33.8 °F 93% 30.39 in - ENE 16.1 mph - N/A   Overcast
12:25 AM 35.6 °F 26.2 °F 33.8 °F 93% 30.39 in - ENE 15.0 mph - N/A   Overcast
12:31 AM 35.6 °F 26.2 °F 33.8 °F 93% 30.39 in 1.7 mi ENE 15.0 mph - N/A   Overcast
12:35 AM 35.6 °F 25.9 °F 33.8 °F 93% 30.39 in - ENE 16.1 mph - N/A   Overcast
12:47 AM 35.6 °F 25.9 °F 33.8 °F 93% 30.39 in - ENE 16.1 mph - N/A   Overcast
12:55 AM 35.6 °F 26.2 °F 33.8 °F 93% 30.39 in - ENE 15.0 mph - N/A   Overcast
1:00 AM 35 °F - 33 °F 89% 30.41 in 3 mi ENE 15.7 mph - - Rain Rain
1:02 AM 35.6 °F 26.2 °F 33.8 °F 93% 30.39 in - ENE 15.0 mph - N/A   Overcast
1:06 AM 35.6 °F 26.2 °F 33.8 °F 93% 30.39 in 3.1 mi ENE 15.0 mph - N/A   Overcast
1:14 AM 35.6 °F 26.2 °F 33.8 °F 93% 30.39 in - ENE 15.0 mph - N/A   Overcast
1:18 AM 35.6 °F 26.2 °F 33.8 °F 93% 30.42 in - ENE 15.0 mph - N/A   Overcast
1:25 AM 35.6 °F 26.2 °F 33.8 °F 93% 30.42 in 3.1 mi ENE 15.0 mph - N/A   Overcast
1:33 AM 35.6 °F 26.6 °F 33.8 °F 93% 30.42 in 3.1 mi ENE 13.8 mph - N/A   Overcast
1:55 AM 35.6 °F 26.2 °F 33.8 °F 93% 30.42 in 3.1 mi ENE 15.0 mph - N/A   Overcast
2:08 AM 35.6 °F 26.2 °F 33.8 °F 93% 30.42 in 3.1 mi ENE 15.0 mph - N/A   Overcast
2:25 AM 35.6 °F 26.6 °F 33.8 °F 93% 30.42 in 3.1 mi ENE 13.8 mph - N/A   Overcast
2:55 AM 35.6 °F 27.5 °F 33.8 °F 93% 30.42 in 3.1 mi ENE 11.5 mph - N/A   Overcast
3:02 AM 35.6 °F 27.1 °F 33.8 °F 93% 30.42 in - ENE 12.7 mph - N/A   Overcast
3:18 AM 35.6 °F 28.0 °F 33.8 °F 93% 30.42 in 3.1 mi ENE 10.4 mph - N/A   Overcast
3:25 AM 35.6 °F 28.0 °F 32.0 °F 87% 30.42 in 3.1 mi ENE 10.4 mph - N/A   Overcast
3:29 AM 35.6 °F 28.0 °F 32.0 °F 87% 30.42 in 3.1 mi ENE 10.4 mph - N/A   Overcast
3:35 AM 35.6 °F 27.5 °F 33.8 °F 93% 30.42 in 2.2 mi East 11.5 mph - N/A   Overcast
3:39 AM 35.6 °F 27.5 °F 32.0 °F 87% 30.42 in - ENE 11.5 mph - N/A   Overcast
3:43 AM 35.6 °F 27.5 °F 32.0 °F 87% 30.42 in - ENE 11.5 mph - N/A   Overcast
3:55 AM 35.6 °F 27.5 °F 32.0 °F 87% 30.42 in - ENE 11.5 mph - N/A   Overcast
3:59 AM 35.6 °F 27.1 °F 32.0 °F 87% 30.42 in - ENE 12.7 mph - N/A   Overcast
4:00 AM 35.6 °F 27.5 °F 32.0 °F 87% 30.42 in 3.1 mi ENE 11.5 mph - N/A   Overcast
4:25 AM 35.6 °F 27.5 °F 32.0 °F 87% 30.42 in 3.1 mi ENE 11.5 mph - N/A   Overcast
4:55 AM 35.6 °F 28.0 °F 32.0 °F 87% 30.42 in 3.1 mi ENE 10.4 mph - N/A   Overcast
5:25 AM 35.6 °F 28.0 °F 33.8 °F 93% 30.42 in 3.1 mi ENE 10.4 mph - N/A   Overcast
5:40 AM 35.6 °F 28.0 °F 33.8 °F 93% 30.45 in 3.1 mi ENE 10.4 mph - N/A   Overcast
5:55 AM 35.6 °F 28.0 °F 33.8 °F 93% 30.45 in - ENE 10.4 mph - N/A   Overcast
6:25 AM 35.6 °F 28.6 °F 33.8 °F 93% 30.45 in - ENE 9.2 mph - N/A   Overcast
6:51 AM 35.6 °F 29.9 °F 33.8 °F 93% 30.45 in - East 6.9 mph - N/A   Overcast
6:55 AM 35.6 °F 29.2 °F 33.8 °F 93% 30.45 in - ENE 8.1 mph - N/A   Overcast
6:59 AM 35.6 °F 29.2 °F 33.8 °F 93% 30.45 in 2.8 mi ENE 8.1 mph - N/A   Overcast
7:00 AM 35 °F - 33 °F 89% 30.48 in 3 mi ENE 8.9 mph - -   Mist
7:16 AM 35.6 °F 28.6 °F 33.8 °F 93% 30.48 in - ENE 9.2 mph - N/A   Overcast
7:25 AM 35.6 °F 28.6 °F 33.8 °F 93% 30.48 in - ENE 9.2 mph - N/A   Overcast
7:55 AM 35.6 °F 28.0 °F 33.8 °F 93% 30.48 in - ENE 10.4 mph - N/A   Overcast
8:18 AM 35.6 °F 29.2 °F 33.8 °F 93% 30.48 in - East 8.1 mph - N/A   Overcast
8:25 AM 35.6 °F 29.2 °F 33.8 °F 93% 30.48 in 2.5 mi East 8.1 mph - N/A   Overcast
8:55 AM 35.6 °F 28.0 °F 33.8 °F 93% 30.51 in - NE 10.4 mph - N/A   Overcast
9:08 AM 35.6 °F 28.6 °F 33.8 °F 93% 30.51 in 2.5 mi ENE 9.2 mph - N/A   Overcast
9:25 AM 35.6 °F 28.6 °F 33.8 °F 93% 30.51 in - ENE 9.2 mph - N/A   Overcast
9:39 AM 35.6 °F 28.0 °F 33.8 °F 93% 30.51 in 2.8 mi ENE 10.4 mph - N/A   Overcast
9:55 AM 35.6 °F 28.0 °F 33.8 °F 93% 30.51 in - ENE 10.4 mph - N/A   Overcast
10:25 AM 37.4 °F 29.3 °F 33.8 °F 87% 30.51 in - ENE 12.7 mph - N/A   Overcast
10:47 AM 37.4 °F 29.8 °F 33.8 °F 87% 30.51 in 3.1 mi East 11.5 mph - N/A   Overcast
10:55 AM 37.4 °F 30.3 °F 33.8 °F 87% 30.51 in 3.1 mi ENE 10.4 mph - N/A   Overcast
11:08 AM 37.4 °F 29.8 °F 33.8 °F 87% 30.54 in 3.1 mi ENE 11.5 mph - N/A   Overcast
11:10 AM 37.4 °F 29.8 °F 33.8 °F 87% 30.54 in 1.0 mi East 11.5 mph - N/A   Overcast
11:16 AM 37.4 °F 29.8 °F 33.8 °F 87% 30.54 in 3.1 mi East 11.5 mph - N/A   Overcast
11:25 AM 37.4 °F 29.8 °F 33.8 °F 87% 30.54 in 3.1 mi East 11.5 mph - N/A   Overcast
11:36 AM 37.4 °F 30.3 °F 35.6 °F 93% 30.54 in 3.1 mi ENE 10.4 mph - N/A   Overcast
11:48 AM 37.4 °F 29.8 °F 33.8 °F 87% 30.54 in - ENE 11.5 mph - N/A   Overcast
11:55 AM 37.4 °F 29.8 °F 35.6 °F 93% 30.54 in 3.1 mi ENE 11.5 mph - N/A   Overcast
12:25 PM 39.2 °F 32.5 °F 35.6 °F 87% 30.54 in 3.1 mi NE 10.4 mph - N/A   Overcast
12:55 PM 39.2 °F 31.6 °F 35.6 °F 87% 30.54 in 4.3 mi NE 12.7 mph - N/A   Overcast
1:00 PM 39 °F - 35 °F 81% 30.54 in 4 mi NE 11.2 mph - -   Mist
1:14 PM 37.4 °F 29.3 °F 33.8 °F 87% 30.54 in 3.7 mi NE 12.7 mph - N/A   Overcast
1:25 PM 39.2 °F 31.6 °F 35.6 °F 87% 30.54 in 3.1 mi NE 12.7 mph - N/A   Overcast
1:31 PM 37.4 °F 29.3 °F 33.8 °F 87% 30.54 in 3.1 mi NE 12.7 mph - N/A   Overcast
1:43 PM 37.4 °F 29.3 °F 33.8 °F 87% 30.54 in 3.1 mi NE 12.7 mph - N/A   Overcast
1:55 PM 37.4 °F 29.3 °F 33.8 °F 87% 30.54 in 3.1 mi NE 12.7 mph - N/A   Overcast
2:12 PM 37.4 °F 28.5 °F 33.8 °F 87% 30.54 in 3.7 mi NE 15.0 mph - N/A   Overcast
2:25 PM 37.4 °F 28.5 °F 33.8 °F 87% 30.54 in 3.7 mi NE 15.0 mph - N/A   Overcast
2:55 PM 37.4 °F 28.5 °F 33.8 °F 87% 30.54 in 3.7 mi ENE 15.0 mph - N/A   Overcast
3:25 PM 35.6 °F 26.2 °F 33.8 °F 93% 30.54 in 3.7 mi NE 15.0 mph - N/A   Overcast
3:55 PM 35.6 °F 27.5 °F 33.8 °F 93% 30.54 in 3.7 mi ENE 11.5 mph - N/A   Overcast
4:25 PM 35.6 °F 27.1 °F 32.0 °F 87% 30.54 in 3.7 mi ENE 12.7 mph - N/A   Overcast
4:31 PM 35.6 °F 27.5 °F 32.0 °F 87% 30.54 in 3.7 mi ENE 11.5 mph - N/A   Overcast
4:55 PM 35.6 °F 26.6 °F 32.0 °F 87% 30.54 in 3.1 mi NE 13.8 mph - N/A   Overcast
5:25 PM 35.6 °F 26.6 °F 32.0 °F 87% 30.54 in 3.1 mi ENE 13.8 mph - N/A   Overcast
5:55 PM 33.8 °F 25.3 °F 32.0 °F 93% 30.54 in 3.1 mi ENE 11.5 mph - N/A   Overcast
6:25 PM 33.8 °F 24.3 °F 32.0 °F 93% 30.54 in - NE 13.8 mph - N/A   Overcast
6:55 PM 33.8 °F 23.5 °F 32.0 °F 93% 30.54 in 3.1 mi NE 16.1 mph - N/A   Overcast
7:00 PM 34 °F - 32 °F 90% 30.56 in 3 mi NE 15.7 mph - -   Mist
7:25 PM 33.8 °F 24.3 °F 32.0 °F 93% 30.54 in 3.1 mi NE 13.8 mph - N/A   Overcast
7:29 PM 33.8 °F 24.8 °F 32.0 °F 93% 30.54 in - NE 12.7 mph - N/A   Overcast
7:38 PM 33.8 °F 24.3 °F 32.0 °F 93% 30.54 in 3.1 mi ENE 13.8 mph - N/A   Overcast
7:51 PM 33.8 °F 23.9 °F 32.0 °F 93% 30.57 in 3.1 mi NE 15.0 mph - N/A   Overcast
7:55 PM 33.8 °F 23.5 °F 32.0 °F 93% 30.57 in 3.1 mi NE 16.1 mph - N/A   Overcast
7:56 PM 33.8 °F 23.5 °F 32.0 °F 93% 30.57 in 3.1 mi NE 16.1 mph - N/A   Overcast
8:08 PM 33.8 °F 23.5 °F 32.0 °F 93% 30.57 in 3.7 mi NE 16.1 mph - N/A   Overcast
8:19 PM 33.8 °F 23.9 °F 32.0 °F 93% 30.57 in 3.7 mi NE 15.0 mph - N/A   Overcast
8:25 PM 33.8 °F 23.5 °F 32.0 °F 93% 30.57 in 3.7 mi NE 16.1 mph - N/A   Overcast
8:39 PM 33.8 °F 23.2 °F 32.0 °F 93% 30.57 in 3.7 mi NE 17.3 mph - N/A   Overcast
8:55 PM 33.8 °F 23.9 °F 32.0 °F 93% 30.57 in 3.1 mi ENE 15.0 mph - N/A   Overcast
9:25 PM 33.8 °F 24.3 °F 32.0 °F 93% 30.57 in 3.1 mi ENE 13.8 mph - N/A   Overcast
9:47 PM 33.8 °F 23.5 °F 32.0 °F 93% 30.57 in 3.1 mi NE 16.1 mph - N/A   Overcast
9:55 PM 33.8 °F 23.5 °F 32.0 °F 93% 30.57 in 3.1 mi NE 16.1 mph - N/A   Overcast
10:18 PM 33.8 °F 23.5 °F 32.0 °F 93% 30.57 in 3.1 mi NE 16.1 mph - N/A   Overcast
10:25 PM 33.8 °F 23.2 °F 32.0 °F 93% 30.57 in 3.1 mi ENE 17.3 mph - N/A   Overcast
10:55 PM 33.8 °F 23.5 °F 32.0 °F 93% 30.57 in 3.1 mi NE 16.1 mph - N/A   Overcast
11:18 PM 33.8 °F 22.8 °F 32.0 °F 93% 30.57 in 3.7 mi ENE 18.4 mph - N/A   Overcast
11:25 PM 33.8 °F 23.2 °F 32.0 °F 93% 30.57 in 4.3 mi ENE 17.3 mph - N/A   Overcast
11:55 PM 33.8 °F 24.8 °F 30.2 °F 87% 30.57 in 4.3 mi ENE 12.7 mph - N/A   Overcast